Time,TemperatureF,DewpointF,PressureIn,WindDirection,WindDirectionDegrees,WindSpeedMPH,WindSpeedGustMPH,Humidity,HourlyPrecipIn,Conditions,Clouds,dailyrainin,SoftwareType,DateUTC
2013-07-26 00:01:00,60.6,59.5,30.06,WSW,248,0.0,0.0,96,0.22,,,0.28,meteobridge,2013-07-26 04:01:00,
2013-07-26 00:02:00,60.6,59.5,30.06,WSW,248,0.0,0.0,96,0.22,,,0.29,meteobridge,2013-07-26 04:02:00,
2013-07-26 00:03:00,60.6,59.5,30.06,WSW,248,0.0,0.0,96,0.22,,,0.29,meteobridge,2013-07-26 04:03:00,
2013-07-26 00:05:00,60.6,59.5,30.06,WSW,248,0.0,0.0,96,0.20,,,0.29,meteobridge,2013-07-26 04:05:00,
2013-07-26 00:10:00,60.6,59.5,30.05,WSW,248,0.0,0.0,96,0.20,,,0.31,meteobridge,2013-07-26 04:10:00,
2013-07-26 00:16:00,60.6,59.5,30.06,NW,320,0.0,2.9,96,0.19,,,0.33,meteobridge,2013-07-26 04:16:00,
2013-07-26 00:21:00,60.6,59.5,30.05,NW,324,0.0,0.0,96,0.20,,,0.36,meteobridge,2013-07-26 04:21:00,
2013-07-26 00:27:00,60.8,59.7,30.06,ESE,111,0.0,0.0,96,0.20,,,0.39,meteobridge,2013-07-26 04:27:00,
2013-07-26 00:32:00,60.8,59.7,30.05,ESE,111,0.0,0.0,96,0.20,,,0.40,meteobridge,2013-07-26 04:32:00,
2013-07-26 00:37:00,60.8,59.7,30.05,ESE,111,0.0,0.0,96,0.19,,,0.41,meteobridge,2013-07-26 04:37:00,
2013-07-26 00:43:00,60.8,59.7,30.05,ESE,111,0.0,0.0,96,0.19,,,0.43,meteobridge,2013-07-26 04:43:00,
2013-07-26 00:48:00,60.8,59.7,30.04,ESE,111,0.0,0.0,96,0.20,,,0.45,meteobridge,2013-07-26 04:48:00,
2013-07-26 00:53:00,60.8,59.7,30.04,ESE,111,0.0,0.0,96,0.19,,,0.46,meteobridge,2013-07-26 04:53:00,
2013-07-26 00:58:00,60.8,59.7,30.04,ESE,111,0.0,0.0,96,0.20,,,0.48,meteobridge,2013-07-26 04:58:00,
2013-07-26 01:03:00,60.8,59.7,30.05,ESE,111,0.0,0.0,96,0.21,,,0.50,meteobridge,2013-07-26 05:03:00,
2013-07-26 01:09:00,60.8,59.9,30.05,East,95,0.0,0.0,97,0.21,,,0.51,meteobridge,2013-07-26 05:09:00,
2013-07-26 01:14:00,60.8,59.7,30.05,ENE,61,0.0,0.9,96,0.19,,,0.52,meteobridge,2013-07-26 05:14:00,
2013-07-26 01:19:00,60.8,59.7,30.04,ESE,119,0.0,0.9,96,0.16,,,0.52,meteobridge,2013-07-26 05:19:00,
2013-07-26 01:25:00,60.8,59.9,30.04,SE,126,0.0,0.0,97,0.15,,,0.53,meteobridge,2013-07-26 05:25:00,
2013-07-26 01:30:00,61.0,60.1,30.04,SE,126,0.0,0.0,97,0.13,,,0.53,meteobridge,2013-07-26 05:30:00,
2013-07-26 01:35:00,61.0,60.1,30.04,SE,126,0.0,0.0,97,0.13,,,0.54,meteobridge,2013-07-26 05:35:00,
2013-07-26 01:40:00,61.0,60.1,30.03,NNW,329,0.0,0.0,97,0.13,,,0.55,meteobridge,2013-07-26 05:40:00,
2013-07-26 01:45:00,61.0,60.1,30.03,East,88,0.0,0.9,97,0.11,,,0.55,meteobridge,2013-07-26 05:45:00,
2013-07-26 01:51:00,61.0,60.1,30.03,East,82,0.0,0.0,97,0.10,,,0.56,meteobridge,2013-07-26 05:51:00,
2013-07-26 01:56:00,61.0,60.1,30.03,East,82,0.0,0.0,97,0.09,,,0.57,meteobridge,2013-07-26 05:56:00,
2013-07-26 02:01:00,61.2,60.3,30.03,SE,126,0.0,0.9,97,0.09,,,0.58,meteobridge,2013-07-26 06:01:00,
2013-07-26 02:06:00,61.0,59.9,30.03,ENE,69,0.0,0.9,96,0.08,,,0.58,meteobridge,2013-07-26 06:06:00,
2013-07-26 02:12:00,61.0,59.9,30.03,ENE,57,0.0,0.0,96,0.07,,,0.59,meteobridge,2013-07-26 06:12:00,
2013-07-26 02:17:00,61.2,60.1,30.03,SSE,159,0.0,0.9,96,0.09,,,0.61,meteobridge,2013-07-26 06:17:00,
2013-07-26 02:22:00,61.2,60.1,30.03,NNE,30,0.0,0.0,96,0.09,,,0.62,meteobridge,2013-07-26 06:22:00,
2013-07-26 02:28:00,61.2,60.1,30.03,ENE,59,0.0,0.9,96,0.10,,,0.64,meteobridge,2013-07-26 06:28:00,
2013-07-26 02:33:00,61.2,60.1,30.03,NW,325,0.9,0.9,96,0.12,,,0.66,meteobridge,2013-07-26 06:33:00,
2013-07-26 02:39:00,61.2,60.1,30.03,ESE,103,0.9,2.9,96,0.12,,,0.67,meteobridge,2013-07-26 06:39:00,
2013-07-26 02:44:00,61.2,60.1,30.03,East,79,0.0,0.0,96,0.13,,,0.68,meteobridge,2013-07-26 06:44:00,
2013-07-26 02:49:00,61.2,60.1,30.03,NNE,18,0.9,0.9,96,0.12,,,0.68,meteobridge,2013-07-26 06:49:00,
2013-07-26 02:55:00,61.2,60.1,30.03,NE,35,0.9,0.9,96,0.12,,,0.69,meteobridge,2013-07-26 06:55:00,
2013-07-26 03:00:00,61.2,60.1,30.03,ENE,71,0.0,2.9,96,0.11,,,0.69,meteobridge,2013-07-26 07:00:00,
2013-07-26 03:05:00,61.2,60.1,30.03,ESE,111,0.0,0.0,96,0.11,,,0.69,meteobridge,2013-07-26 07:05:00,
2013-07-26 03:10:00,61.2,60.1,30.03,NE,44,0.0,0.0,96,0.11,,,0.70,meteobridge,2013-07-26 07:10:00,
2013-07-26 03:15:00,61.2,60.3,30.03,NNE,19,2.0,6.0,97,0.10,,,0.70,meteobridge,2013-07-26 07:15:00,
2013-07-26 03:20:00,61.2,60.1,30.02,NE,36,0.9,2.9,96,0.08,,,0.70,meteobridge,2013-07-26 07:20:00,
2013-07-26 03:26:00,61.2,60.1,30.02,ESE,109,0.0,0.9,96,0.06,,,0.70,meteobridge,2013-07-26 07:26:00,
2013-07-26 03:31:00,61.3,60.3,30.02,ENE,71,0.0,0.0,96,0.05,,,0.70,meteobridge,2013-07-26 07:31:00,
2013-07-26 03:36:00,61.3,60.3,30.02,North,0,0.0,2.9,96,0.05,,,0.71,meteobridge,2013-07-26 07:36:00,
2013-07-26 03:41:00,61.3,59.9,30.01,NE,43,0.0,2.0,95,0.03,,,0.71,meteobridge,2013-07-26 07:41:00,
2013-07-26 03:46:00,61.3,59.9,30.01,NNW,334,0.0,0.9,95,0.03,,,0.71,meteobridge,2013-07-26 07:46:00,
2013-07-26 03:51:00,61.3,59.5,30.01,North,350,0.0,0.9,94,0.03,,,0.71,meteobridge,2013-07-26 07:51:00,
2013-07-26 03:57:00,61.5,59.7,30.01,East,86,0.0,6.0,94,0.02,,,0.71,meteobridge,2013-07-26 07:57:00,
2013-07-26 04:02:00,61.5,59.7,30.01,NE,34,2.0,2.0,94,0.02,,,0.71,meteobridge,2013-07-26 08:02:00,
2013-07-26 04:07:00,61.5,59.7,30.01,NNW,340,6.9,6.9,94,0.01,,,0.71,meteobridge,2013-07-26 08:07:00,
2013-07-26 04:12:00,61.7,59.7,30.01,NNE,17,0.9,0.9,93,0.01,,,0.71,meteobridge,2013-07-26 08:12:00,
2013-07-26 04:18:00,61.7,59.7,30.01,North,11,0.9,4.0,93,0.01,,,0.71,meteobridge,2013-07-26 08:18:00,
2013-07-26 04:23:00,61.9,59.9,30.02,NNE,32,0.9,2.9,93,0.01,,,0.71,meteobridge,2013-07-26 08:23:00,
2013-07-26 04:28:00,61.9,59.9,30.02,NE,53,0.0,2.0,93,0.02,,,0.72,meteobridge,2013-07-26 08:28:00,
2013-07-26 04:34:00,61.9,59.9,30.02,NE,49,0.0,2.0,93,0.02,,,0.72,meteobridge,2013-07-26 08:34:00,
2013-07-26 04:39:00,61.9,60.1,30.01,NNW,329,2.0,4.0,94,0.01,,,0.72,meteobridge,2013-07-26 08:39:00,
2013-07-26 04:44:00,61.9,59.5,30.01,NNW,340,0.9,6.0,92,0.01,,,0.72,meteobridge,2013-07-26 08:44:00,
2013-07-26 04:49:00,61.9,59.9,30.01,NNW,348,0.9,2.0,93,0.01,,,0.72,meteobridge,2013-07-26 08:49:00,
2013-07-26 04:55:00,62.1,60.1,30.01,NE,38,0.0,2.0,93,0.01,,,0.72,meteobridge,2013-07-26 08:55:00,
2013-07-26 05:00:00,62.1,60.1,30.01,NE,37,2.0,2.0,93,0.01,,,0.72,meteobridge,2013-07-26 09:00:00,
2013-07-26 05:05:00,62.1,59.4,30.01,NW,318,4.0,6.9,91,0.01,,,0.72,meteobridge,2013-07-26 09:05:00,
2013-07-26 05:10:00,62.2,59.2,30.01,NNW,345,4.0,6.9,90,0.01,,,0.72,meteobridge,2013-07-26 09:10:00,
2013-07-26 05:16:00,62.4,59.4,30.01,NNW,328,4.0,8.1,90,0.01,,,0.72,meteobridge,2013-07-26 09:16:00,
2013-07-26 05:21:00,62.6,59.4,30.01,NNE,16,2.0,4.9,89,0.01,,,0.72,meteobridge,2013-07-26 09:21:00,
2013-07-26 05:26:00,62.8,59.5,30.02,NNW,336,2.0,6.0,89,0.00,,,0.72,meteobridge,2013-07-26 09:26:00,
2013-07-26 05:32:00,62.8,59.5,30.02,North,0,4.0,4.9,89,0.00,,,0.72,meteobridge,2013-07-26 09:32:00,
2013-07-26 05:37:00,62.8,59.5,30.02,NE,46,0.0,4.9,89,0.00,,,0.72,meteobridge,2013-07-26 09:37:00,
2013-07-26 05:42:00,63.0,59.7,30.03,North,11,0.9,2.9,89,0.00,,,0.72,meteobridge,2013-07-26 09:42:00,
2013-07-26 05:47:00,63.0,59.7,30.03,NW,309,2.0,2.0,89,0.00,,,0.72,meteobridge,2013-07-26 09:47:00,
2013-07-26 05:53:00,63.0,59.9,30.03,NW,311,0.0,0.0,90,0.00,,,0.72,meteobridge,2013-07-26 09:53:00,
2013-07-26 05:58:00,63.0,59.4,30.03,NNE,19,0.0,6.0,88,0.00,,,0.72,meteobridge,2013-07-26 09:58:00,
2013-07-26 06:03:00,63.0,59.4,30.02,NNE,26,0.9,2.9,88,0.00,,,0.72,meteobridge,2013-07-26 10:03:00,
2013-07-26 06:05:00,63.0,59.4,30.02,NNE,15,4.0,8.1,88,0.00,,,0.72,meteobridge,2013-07-26 10:05:00,
2013-07-26 06:10:00,63.0,59.4,30.02,North,5,0.0,4.0,88,0.00,,,0.72,meteobridge,2013-07-26 10:10:00,
2013-07-26 06:15:00,63.0,59.4,30.02,North,11,0.0,4.9,88,0.00,,,0.72,meteobridge,2013-07-26 10:15:00,
2013-07-26 06:21:00,63.0,59.7,30.02,NNE,17,4.9,6.0,89,0.00,,,0.72,meteobridge,2013-07-26 10:21:00,
2013-07-26 06:26:00,63.1,59.9,30.01,North,355,2.9,4.0,89,0.00,,,0.72,meteobridge,2013-07-26 10:26:00,
2013-07-26 06:31:00,63.1,59.9,30.01,NNE,16,0.9,4.9,89,0.00,,,0.72,meteobridge,2013-07-26 10:31:00,
2013-07-26 06:37:00,63.3,59.4,30.02,North,5,0.9,4.9,87,0.00,,,0.72,meteobridge,2013-07-26 10:37:00,
2013-07-26 06:42:00,63.7,59.7,30.02,NNE,24,0.9,2.9,87,0.00,,,0.72,meteobridge,2013-07-26 10:42:00,
2013-07-26 06:47:00,63.7,59.7,30.02,NNE,31,4.0,6.0,87,0.00,,,0.72,meteobridge,2013-07-26 10:47:00,
2013-07-26 06:52:00,63.9,59.5,30.02,NE,38,2.9,6.0,86,0.00,,,0.72,meteobridge,2013-07-26 10:52:00,
2013-07-26 06:58:00,63.9,59.9,30.02,NNE,13,0.0,4.0,87,0.00,,,0.72,meteobridge,2013-07-26 10:58:00,
2013-07-26 07:03:00,63.9,59.9,30.01,ENE,63,0.9,0.9,87,0.00,,,0.72,meteobridge,2013-07-26 11:03:00,
2013-07-26 07:09:00,63.9,60.3,30.02,NW,315,0.9,0.9,88,0.00,,,0.72,meteobridge,2013-07-26 11:09:00,
2013-07-26 07:14:00,63.9,60.3,30.03,NE,49,0.9,2.0,88,0.00,,,0.72,meteobridge,2013-07-26 11:14:00,
2013-07-26 07:19:00,63.9,59.9,30.02,NNE,15,0.9,2.9,87,0.00,,,0.72,meteobridge,2013-07-26 11:19:00,
2013-07-26 07:24:00,63.9,59.9,30.02,NNE,15,2.9,4.9,87,0.00,,,0.72,meteobridge,2013-07-26 11:24:00,
2013-07-26 07:30:00,64.0,60.1,30.01,NNW,348,0.0,4.0,87,0.00,,,0.72,meteobridge,2013-07-26 11:30:00,
2013-07-26 07:35:00,64.0,60.1,30.01,ESE,117,0.9,6.9,87,0.00,,,0.72,meteobridge,2013-07-26 11:35:00,
2013-07-26 07:41:00,64.0,60.4,30.02,NNW,335,0.0,2.0,88,0.00,,,0.72,meteobridge,2013-07-26 11:41:00,
2013-07-26 07:46:00,64.2,60.3,30.02,West,278,0.9,4.0,87,0.00,,,0.72,meteobridge,2013-07-26 11:46:00,
2013-07-26 07:51:00,64.2,60.6,30.02,NW,321,0.0,0.9,88,0.00,,,0.72,meteobridge,2013-07-26 11:51:00,
2013-07-26 07:57:00,64.4,60.1,30.03,NNE,28,2.0,6.0,86,0.00,,,0.72,meteobridge,2013-07-26 11:57:00,
2013-07-26 08:02:00,64.4,60.4,30.02,NNE,23,0.0,0.9,87,0.00,,,0.72,meteobridge,2013-07-26 12:02:00,
2013-07-26 08:08:00,64.4,60.4,30.02,NE,35,0.0,0.0,87,0.00,,,0.72,meteobridge,2013-07-26 12:08:00,
2013-07-26 08:13:00,64.2,60.6,30.02,NE,35,0.0,2.0,88,0.00,,,0.72,meteobridge,2013-07-26 12:13:00,
2013-07-26 08:18:00,64.2,61.0,30.02,North,355,0.9,2.0,89,0.00,,,0.72,meteobridge,2013-07-26 12:18:00,
2013-07-26 08:23:00,64.2,61.0,30.01,North,355,0.0,0.0,89,0.00,,,0.72,meteobridge,2013-07-26 12:23:00,
2013-07-26 08:29:00,64.2,60.6,30.02,NNE,21,0.0,4.9,88,0.00,,,0.72,meteobridge,2013-07-26 12:29:00,
2013-07-26 08:34:00,64.2,61.0,30.02,North,355,0.0,0.0,89,0.00,,,0.72,meteobridge,2013-07-26 12:34:00,
2013-07-26 08:39:00,64.2,60.6,30.02,North,355,0.0,0.9,88,0.00,,,0.72,meteobridge,2013-07-26 12:39:00,
2013-07-26 08:44:00,64.4,60.8,30.02,NNE,13,0.0,2.0,88,0.00,,,0.72,meteobridge,2013-07-26 12:44:00,
2013-07-26 08:49:00,64.4,60.4,30.02,NNE,14,0.9,8.9,87,0.00,,,0.72,meteobridge,2013-07-26 12:49:00,
2013-07-26 08:54:00,64.6,60.6,30.02,WNW,290,2.9,2.9,87,0.00,,,0.72,meteobridge,2013-07-26 12:54:00,
2013-07-26 09:00:00,64.8,61.2,30.02,NNE,15,4.9,4.9,88,0.00,,,0.72,meteobridge,2013-07-26 13:00:00,
2013-07-26 09:05:00,64.9,61.0,30.02,NNE,17,2.9,2.9,87,0.00,,,0.72,meteobridge,2013-07-26 13:05:00,
2013-07-26 09:10:00,64.9,60.6,30.02,North,5,0.9,4.0,86,0.00,,,0.72,meteobridge,2013-07-26 13:10:00,
2013-07-26 09:15:00,65.1,61.2,30.03,WNW,300,0.9,2.0,87,0.00,,,0.72,meteobridge,2013-07-26 13:15:00,
2013-07-26 09:21:00,65.5,61.5,30.03,WNW,287,0.0,2.9,87,0.00,,,0.72,meteobridge,2013-07-26 13:21:00,
2013-07-26 09:26:00,65.7,60.6,30.03,NNE,30,6.0,6.9,84,0.00,,,0.72,meteobridge,2013-07-26 13:26:00,
2013-07-26 09:32:00,65.7,60.4,30.03,North,5,0.0,2.9,83,0.00,,,0.72,meteobridge,2013-07-26 13:32:00,
2013-07-26 09:37:00,65.8,60.3,30.02,NNW,340,2.0,4.9,82,0.00,,,0.72,meteobridge,2013-07-26 13:37:00,
2013-07-26 09:42:00,66.0,60.1,30.03,North,351,0.9,12.1,81,0.00,,,0.72,meteobridge,2013-07-26 13:42:00,
2013-07-26 09:47:00,66.0,60.1,30.03,NNE,29,4.9,4.9,81,0.00,,,0.72,meteobridge,2013-07-26 13:47:00,
2013-07-26 09:53:00,66.4,60.8,30.03,NNE,24,2.0,2.0,82,0.00,,,0.72,meteobridge,2013-07-26 13:53:00,
2013-07-26 09:58:00,66.6,61.5,30.03,NE,38,2.0,2.0,84,0.00,,,0.72,meteobridge,2013-07-26 13:58:00,
2013-07-26 10:03:00,66.7,60.1,30.03,NE,34,2.0,4.9,79,0.00,,,0.72,meteobridge,2013-07-26 14:03:00,
2013-07-26 10:09:00,66.9,60.6,30.03,NNE,24,2.9,4.9,80,0.00,,,0.72,meteobridge,2013-07-26 14:09:00,
2013-07-26 10:14:00,67.1,60.8,30.03,North,355,2.9,4.0,80,0.00,,,0.72,meteobridge,2013-07-26 14:14:00,
2013-07-26 10:19:00,67.3,60.6,30.03,North,350,2.0,4.0,79,0.00,,,0.72,meteobridge,2013-07-26 14:19:00,
2013-07-26 10:24:00,67.5,60.4,30.03,NNE,18,0.0,8.1,78,0.00,,,0.72,meteobridge,2013-07-26 14:24:00,
2013-07-26 10:29:00,67.6,60.3,30.03,NE,36,2.9,4.9,77,0.00,,,0.72,meteobridge,2013-07-26 14:29:00,
2013-07-26 10:30:00,67.6,60.6,30.03,NE,36,0.0,4.9,78,0.00,,,0.72,meteobridge,2013-07-26 14:30:00,
2013-07-26 10:35:00,67.8,61.0,30.03,NNE,27,0.9,6.0,79,0.00,,,0.72,meteobridge,2013-07-26 14:35:00,
2013-07-26 10:41:00,68.2,61.0,30.03,NNE,20,2.0,2.9,78,0.00,,,0.72,meteobridge,2013-07-26 14:41:00,
2013-07-26 10:47:00,68.5,61.0,30.03,North,350,0.9,4.9,77,0.00,,,0.72,meteobridge,2013-07-26 14:47:00,
2013-07-26 10:52:00,68.7,61.2,30.03,SE,131,0.0,2.9,77,0.00,,,0.72,meteobridge,2013-07-26 14:52:00,
2013-07-26 10:57:00,69.1,61.9,30.03,NNE,19,4.9,6.0,78,0.00,,,0.72,meteobridge,2013-07-26 14:57:00,
2013-07-26 11:02:00,69.3,62.4,30.03,North,11,0.9,2.9,79,0.00,,,0.72,meteobridge,2013-07-26 15:02:00,
2013-07-26 11:08:00,69.4,61.9,30.03,NNW,340,2.9,4.9,77,0.00,,,0.72,meteobridge,2013-07-26 15:08:00,
2013-07-26 11:13:00,69.4,61.9,30.03,North,5,0.0,6.9,77,0.00,,,0.72,meteobridge,2013-07-26 15:13:00,
2013-07-26 11:18:00,69.6,61.3,30.03,NNE,18,2.9,8.1,75,0.00,,,0.72,meteobridge,2013-07-26 15:18:00,
2013-07-26 11:23:00,69.8,61.9,30.03,North,355,4.0,4.9,76,0.00,,,0.72,meteobridge,2013-07-26 15:23:00,
2013-07-26 11:29:00,69.8,61.9,30.03,NNW,338,0.9,4.9,76,0.00,,,0.72,meteobridge,2013-07-26 15:29:00,
2013-07-26 11:34:00,70.0,62.1,30.03,NNE,15,4.9,4.9,76,0.00,,,0.72,meteobridge,2013-07-26 15:34:00,
2013-07-26 11:39:00,70.0,61.7,30.03,NE,38,2.9,6.0,75,0.00,,,0.72,meteobridge,2013-07-26 15:39:00,
2013-07-26 11:44:00,70.2,61.9,30.03,NNE,14,4.9,6.0,75,0.00,,,0.72,meteobridge,2013-07-26 15:44:00,
2013-07-26 11:50:00,70.2,62.2,30.03,WNW,300,0.0,4.0,76,0.00,,,0.72,meteobridge,2013-07-26 15:50:00,
2013-07-26 11:55:00,70.2,62.2,30.03,North,5,0.9,0.9,76,0.00,,,0.72,meteobridge,2013-07-26 15:55:00,
2013-07-26 12:01:00,70.3,62.8,30.03,NE,51,4.0,4.0,77,0.00,,,0.72,meteobridge,2013-07-26 16:01:00,
2013-07-26 12:06:00,70.3,62.4,30.03,NNE,24,0.9,6.0,76,0.00,,,0.72,meteobridge,2013-07-26 16:06:00,
2013-07-26 12:11:00,70.2,62.6,30.03,WNW,296,0.0,2.0,77,0.00,,,0.72,meteobridge,2013-07-26 16:11:00,
2013-07-26 12:17:00,70.3,63.1,30.03,West,280,0.0,2.0,78,0.00,,,0.72,meteobridge,2013-07-26 16:17:00,
2013-07-26 12:22:00,70.9,63.3,30.03,West,275,2.9,4.9,77,0.00,,,0.72,meteobridge,2013-07-26 16:22:00,
2013-07-26 12:27:00,71.1,62.8,30.03,NNW,335,2.0,2.9,75,0.00,,,0.72,meteobridge,2013-07-26 16:27:00,
2013-07-26 12:32:00,71.4,63.1,30.03,North,5,0.9,2.9,75,0.00,,,0.72,meteobridge,2013-07-26 16:32:00,
2013-07-26 12:38:00,72.0,62.8,30.03,WSW,251,0.9,6.0,73,0.00,,,0.72,meteobridge,2013-07-26 16:38:00,
2013-07-26 12:43:00,72.1,64.6,30.03,NE,53,0.0,2.9,77,0.00,,,0.72,meteobridge,2013-07-26 16:43:00,
2013-07-26 12:48:00,72.7,63.1,30.03,NW,314,0.9,2.9,72,0.00,,,0.72,meteobridge,2013-07-26 16:48:00,
2013-07-26 12:54:00,73.0,62.6,30.03,NNW,336,0.9,4.9,70,0.00,,,0.72,meteobridge,2013-07-26 16:54:00,
2013-07-26 12:59:00,73.0,61.9,30.03,West,280,0.9,2.9,68,0.00,,,0.72,meteobridge,2013-07-26 16:59:00,
2013-07-26 13:04:00,73.0,63.1,30.03,NW,321,2.0,8.1,71,0.00,,,0.72,meteobridge,2013-07-26 17:04:00,
2013-07-26 13:09:00,72.9,63.0,30.03,North,349,0.9,2.9,71,0.00,,,0.72,meteobridge,2013-07-26 17:09:00,
2013-07-26 13:14:00,72.9,62.1,30.02,ENE,74,2.0,4.9,69,0.00,,,0.72,meteobridge,2013-07-26 17:14:00,
2013-07-26 13:20:00,73.0,61.0,30.03,North,9,2.9,8.9,66,0.00,,,0.72,meteobridge,2013-07-26 17:20:00,
2013-07-26 13:25:00,73.2,63.3,30.02,West,259,2.0,4.0,71,0.00,,,0.72,meteobridge,2013-07-26 17:25:00,
2013-07-26 13:30:00,73.6,64.4,30.02,WSW,246,0.9,2.0,73,0.00,,,0.72,meteobridge,2013-07-26 17:30:00,
2013-07-26 13:35:00,73.8,64.2,30.02,West,275,0.0,4.9,72,0.00,,,0.72,meteobridge,2013-07-26 17:35:00,
2013-07-26 13:41:00,73.6,64.8,30.02,North,355,0.0,0.9,74,0.00,,,0.72,meteobridge,2013-07-26 17:41:00,
2013-07-26 13:46:00,73.8,64.2,30.02,West,277,2.0,4.9,72,0.00,,,0.72,meteobridge,2013-07-26 17:46:00,
2013-07-26 13:51:00,73.8,64.9,30.02,WNW,302,0.9,2.9,74,0.00,,,0.72,meteobridge,2013-07-26 17:51:00,
2013-07-26 13:56:00,73.4,62.6,30.02,North,5,2.0,4.9,69,0.00,,,0.72,meteobridge,2013-07-26 17:56:00,
2013-07-26 14:02:00,73.6,63.7,30.02,North,355,0.0,2.0,71,0.00,,,0.72,meteobridge,2013-07-26 18:02:00,
2013-07-26 14:07:00,73.8,61.7,30.02,NW,321,2.9,6.0,66,0.00,,,0.72,meteobridge,2013-07-26 18:07:00,
2013-07-26 14:12:00,74.1,62.4,30.02,North,5,0.9,4.0,67,0.00,,,0.72,meteobridge,2013-07-26 18:12:00,
2013-07-26 14:17:00,74.1,60.3,30.02,North,5,2.0,4.9,62,0.00,,,0.72,meteobridge,2013-07-26 18:17:00,
2013-07-26 14:23:00,74.3,61.7,30.02,NW,323,0.0,2.0,65,0.00,,,0.72,meteobridge,2013-07-26 18:23:00,
2013-07-26 14:28:00,75.0,63.3,30.02,NW,322,2.0,2.0,67,0.00,,,0.72,meteobridge,2013-07-26 18:28:00,
2013-07-26 14:34:00,75.6,62.1,30.02,West,268,0.0,0.9,63,0.00,,,0.72,meteobridge,2013-07-26 18:34:00,
2013-07-26 14:39:00,75.9,64.2,30.02,North,5,2.0,2.9,67,0.00,,,0.72,meteobridge,2013-07-26 18:39:00,
2013-07-26 14:45:00,75.7,64.8,30.02,NNW,327,2.0,8.1,69,0.00,,,0.72,meteobridge,2013-07-26 18:45:00,
2013-07-26 14:50:00,75.6,63.9,30.02,NW,315,0.9,6.9,67,0.00,,,0.72,meteobridge,2013-07-26 18:50:00,
2013-07-26 14:55:00,75.0,64.6,30.02,NW,321,2.0,6.9,70,0.00,,,0.72,meteobridge,2013-07-26 18:55:00,
2013-07-26 15:01:00,74.7,63.3,30.02,WSW,257,2.0,4.0,68,0.00,,,0.72,meteobridge,2013-07-26 19:01:00,
2013-07-26 15:06:00,74.1,63.7,30.02,WNW,295,0.9,6.0,70,0.00,,,0.72,meteobridge,2013-07-26 19:06:00,
2013-07-26 15:11:00,73.8,64.2,30.02,WSW,249,0.0,4.0,72,0.00,,,0.72,meteobridge,2013-07-26 19:11:00,
2013-07-26 15:17:00,73.2,63.7,30.02,NW,304,0.0,0.9,72,0.00,,,0.72,meteobridge,2013-07-26 19:17:00,
2013-07-26 15:22:00,73.0,63.5,30.02,North,355,0.0,0.9,72,0.00,,,0.72,meteobridge,2013-07-26 19:22:00,
2013-07-26 15:27:00,73.0,63.9,30.02,NW,317,0.9,0.9,73,0.00,,,0.72,meteobridge,2013-07-26 19:27:00,
2013-07-26 15:33:00,73.0,63.5,30.02,NW,319,0.9,0.9,72,0.00,,,0.72,meteobridge,2013-07-26 19:33:00,
2013-07-26 15:38:00,73.0,64.6,30.02,WNW,288,0.0,2.9,75,0.00,,,0.72,meteobridge,2013-07-26 19:38:00,
2013-07-26 15:43:00,73.2,64.8,30.02,WNW,288,0.9,0.9,75,0.00,,,0.72,meteobridge,2013-07-26 19:43:00,
2013-07-26 15:49:00,73.4,65.7,30.01,WNW,288,0.0,0.0,77,0.00,,,0.72,meteobridge,2013-07-26 19:49:00,
2013-07-26 15:54:00,73.6,66.4,30.01,South,173,0.9,0.9,78,0.00,,,0.72,meteobridge,2013-07-26 19:54:00,
2013-07-26 15:59:00,73.9,64.8,30.01,SSW,196,0.0,2.0,73,0.00,,,0.72,meteobridge,2013-07-26 19:59:00,
2013-07-26 16:04:00,74.5,65.3,30.01,SSE,152,0.0,2.9,73,0.00,,,0.72,meteobridge,2013-07-26 20:04:00,
2013-07-26 16:09:00,74.8,64.8,30.01,West,260,0.0,4.0,71,0.00,,,0.72,meteobridge,2013-07-26 20:09:00,
2013-07-26 16:14:00,75.4,64.9,30.01,West,259,2.0,2.0,70,0.00,,,0.72,meteobridge,2013-07-26 20:14:00,
2013-07-26 16:20:00,75.6,64.8,30.01,WNW,298,4.0,4.9,69,0.00,,,0.72,meteobridge,2013-07-26 20:20:00,
2013-07-26 16:25:00,75.6,65.1,30.01,WSW,250,4.0,6.0,70,0.00,,,0.72,meteobridge,2013-07-26 20:25:00,
2013-07-26 16:30:00,75.7,63.5,30.01,NE,42,4.9,6.0,66,0.00,,,0.72,meteobridge,2013-07-26 20:30:00,
2013-07-26 16:36:00,75.7,64.8,30.01,NNW,346,0.0,0.9,69,0.00,,,0.72,meteobridge,2013-07-26 20:36:00,
2013-07-26 16:41:00,75.9,64.9,30.00,WNW,292,0.0,2.0,69,0.00,,,0.72,meteobridge,2013-07-26 20:41:00,
2013-07-26 16:46:00,75.9,64.9,30.00,WNW,288,0.0,4.0,69,0.00,,,0.72,meteobridge,2013-07-26 20:46:00,
2013-07-26 16:51:00,75.9,64.2,30.00,NNE,17,0.9,4.9,67,0.00,,,0.72,meteobridge,2013-07-26 20:51:00,
2013-07-26 16:57:00,75.9,64.2,30.00,NNW,333,2.0,4.0,67,0.00,,,0.72,meteobridge,2013-07-26 20:57:00,
2013-07-26 17:02:00,76.3,63.7,30.00,WNW,299,0.9,4.0,65,0.00,,,0.72,meteobridge,2013-07-26 21:02:00,
2013-07-26 17:07:00,76.3,63.7,30.00,WNW,283,2.0,2.9,65,0.00,,,0.72,meteobridge,2013-07-26 21:07:00,
2013-07-26 17:12:00,76.3,63.7,30.00,WSW,238,2.9,8.9,65,0.00,,,0.72,meteobridge,2013-07-26 21:12:00,
2013-07-26 17:18:00,76.5,63.0,30.00,NE,34,0.0,4.0,63,0.00,,,0.72,meteobridge,2013-07-26 21:18:00,
2013-07-26 17:23:00,76.5,63.9,30.00,WNW,294,0.0,4.9,65,0.00,,,0.72,meteobridge,2013-07-26 21:23:00,
2013-07-26 17:28:00,76.5,63.3,30.00,WNW,293,2.0,2.9,64,0.00,,,0.72,meteobridge,2013-07-26 21:28:00,
2013-07-26 17:34:00,76.5,63.3,30.00,West,263,0.0,6.0,64,0.00,,,0.72,meteobridge,2013-07-26 21:34:00,
2013-07-26 17:39:00,76.3,63.7,30.00,North,350,0.0,0.9,65,0.00,,,0.72,meteobridge,2013-07-26 21:39:00,
2013-07-26 17:44:00,76.3,64.6,30.00,WNW,303,0.0,4.9,67,0.00,,,0.72,meteobridge,2013-07-26 21:44:00,
2013-07-26 17:49:00,76.5,64.2,29.99,WNW,287,2.0,2.0,66,0.00,,,0.72,meteobridge,2013-07-26 21:49:00,
2013-07-26 17:54:00,76.5,63.9,29.99,NNE,19,0.0,2.0,65,0.00,,,0.72,meteobridge,2013-07-26 21:54:00,
2013-07-26 18:00:00,76.6,63.5,29.99,NNE,14,0.0,0.9,64,0.00,,,0.72,meteobridge,2013-07-26 22:00:00,
2013-07-26 18:05:00,76.6,64.4,30.00,WSW,252,2.9,4.0,66,0.00,,,0.72,meteobridge,2013-07-26 22:05:00,
2013-07-26 18:10:00,76.8,63.7,30.00,NW,310,2.0,2.9,64,0.00,,,0.72,meteobridge,2013-07-26 22:10:00,
2013-07-26 18:15:00,76.8,63.3,30.00,WNW,287,2.0,2.9,63,0.00,,,0.72,meteobridge,2013-07-26 22:15:00,
2013-07-26 18:20:00,76.8,63.7,30.00,WNW,293,2.0,4.9,64,0.00,,,0.72,meteobridge,2013-07-26 22:20:00,
2013-07-26 18:26:00,76.8,64.2,30.00,WNW,293,0.0,0.9,65,0.00,,,0.72,meteobridge,2013-07-26 22:26:00,
2013-07-26 18:31:00,76.8,64.2,30.00,NNW,348,0.0,2.9,65,0.00,,,0.72,meteobridge,2013-07-26 22:31:00,
2013-07-26 18:36:00,76.8,63.7,30.00,WNW,302,0.0,0.9,64,0.00,,,0.72,meteobridge,2013-07-26 22:36:00,
2013-07-26 18:42:00,76.8,64.2,30.00,NNW,343,0.0,0.9,65,0.00,,,0.72,meteobridge,2013-07-26 22:42:00,
2013-07-26 18:47:00,76.8,64.2,30.00,WNW,303,0.0,0.9,65,0.00,,,0.72,meteobridge,2013-07-26 22:47:00,
2013-07-26 18:52:00,76.6,63.1,30.00,NNW,337,0.0,0.9,63,0.00,,,0.72,meteobridge,2013-07-26 22:52:00,
2013-07-26 18:58:00,76.8,63.3,30.00,NNW,337,0.0,0.9,63,0.00,,,0.72,meteobridge,2013-07-26 22:58:00,
2013-07-26 19:03:00,76.6,64.0,30.00,NNE,28,0.9,2.0,65,0.00,,,0.72,meteobridge,2013-07-26 23:03:00,
2013-07-26 19:08:00,76.6,64.0,30.00,NE,46,0.0,0.0,65,0.00,,,0.72,meteobridge,2013-07-26 23:08:00,
2013-07-26 19:14:00,76.5,63.0,30.01,NE,46,0.0,0.0,63,0.00,,,0.72,meteobridge,2013-07-26 23:14:00,
2013-07-26 19:19:00,76.5,64.8,30.01,WSW,257,0.0,2.0,67,0.00,,,0.72,meteobridge,2013-07-26 23:19:00,
2013-07-26 19:24:00,76.3,64.6,30.01,North,5,0.0,0.0,67,0.00,,,0.72,meteobridge,2013-07-26 23:24:00,
2013-07-26 19:29:00,75.9,66.2,30.01,North,5,0.0,0.0,72,0.00,,,0.72,meteobridge,2013-07-26 23:29:00,
2013-07-26 19:35:00,75.7,66.4,30.01,North,5,0.0,0.9,73,0.00,,,0.72,meteobridge,2013-07-26 23:35:00,
2013-07-26 19:40:00,75.4,66.6,30.01,North,5,0.0,0.9,74,0.00,,,0.72,meteobridge,2013-07-26 23:40:00,
2013-07-26 19:45:00,75.0,66.6,30.01,North,5,0.0,0.0,75,0.00,,,0.72,meteobridge,2013-07-26 23:45:00,
2013-07-26 19:51:00,74.8,66.7,30.01,North,5,0.0,0.0,76,0.00,,,0.72,meteobridge,2013-07-26 23:51:00,
2013-07-26 19:56:00,74.5,66.7,30.01,North,5,0.0,0.0,77,0.00,,,0.72,meteobridge,2013-07-26 23:56:00,
2013-07-26 20:01:00,73.9,66.2,30.01,North,5,0.0,0.0,77,0.00,,,0.00,meteobridge,2013-07-27 00:01:00,
2013-07-26 20:07:00,73.8,66.4,30.01,North,5,0.0,0.0,78,0.00,,,0.00,meteobridge,2013-07-27 00:07:00,
2013-07-26 20:12:00,73.4,66.2,30.01,North,5,0.0,2.0,78,0.00,,,0.00,meteobridge,2013-07-27 00:12:00,
2013-07-26 20:17:00,73.0,66.2,30.01,North,5,0.0,0.0,79,0.00,,,0.00,meteobridge,2013-07-27 00:17:00,
2013-07-26 20:22:00,72.7,66.2,30.01,North,5,0.0,0.0,80,0.00,,,0.00,meteobridge,2013-07-27 00:22:00,
2013-07-26 20:28:00,72.1,66.0,30.01,North,5,0.0,0.0,81,0.00,,,0.00,meteobridge,2013-07-27 00:28:00,
2013-07-26 20:34:00,72.0,66.2,30.02,North,5,0.0,0.0,82,0.00,,,0.00,meteobridge,2013-07-27 00:34:00,
2013-07-26 20:39:00,71.4,65.7,30.02,North,5,0.0,0.0,82,0.00,,,0.00,meteobridge,2013-07-27 00:39:00,
2013-07-26 20:44:00,71.1,65.7,30.02,North,5,0.0,0.9,83,0.00,,,0.00,meteobridge,2013-07-27 00:44:00,
2013-07-26 20:49:00,70.5,65.1,30.02,North,5,0.0,0.0,83,0.00,,,0.00,meteobridge,2013-07-27 00:49:00,
2013-07-26 20:55:00,70.2,65.1,30.02,North,5,2.0,2.0,84,0.00,,,0.00,meteobridge,2013-07-27 00:55:00,
2013-07-26 21:00:00,70.0,65.3,30.03,SE,130,0.9,2.0,85,0.00,,,0.00,meteobridge,2013-07-27 01:00:00,
2013-07-26 21:05:00,69.6,65.3,30.02,SSE,159,0.9,2.0,86,0.00,,,0.00,meteobridge,2013-07-27 01:05:00,
2013-07-26 21:10:00,69.4,65.1,30.03,SSW,192,0.0,2.0,86,0.00,,,0.00,meteobridge,2013-07-27 01:10:00,
2013-07-26 21:16:00,69.1,65.1,30.03,South,188,0.0,0.0,87,0.00,,,0.00,meteobridge,2013-07-27 01:16:00,
2013-07-26 21:22:00,68.7,64.8,30.03,South,188,0.0,0.0,87,0.00,,,0.00,meteobridge,2013-07-27 01:22:00,
2013-07-26 21:28:00,68.5,64.6,30.03,South,188,0.0,0.0,87,0.00,,,0.00,meteobridge,2013-07-27 01:28:00,
2013-07-26 21:33:00,68.4,64.4,30.03,South,188,0.0,0.0,87,0.00,,,0.00,meteobridge,2013-07-27 01:33:00,
2013-07-26 21:38:00,68.2,63.9,30.03,South,188,0.0,0.0,86,0.00,,,0.00,meteobridge,2013-07-27 01:38:00,
2013-07-26 21:43:00,68.2,64.2,30.04,South,188,0.0,0.0,87,0.00,,,0.00,meteobridge,2013-07-27 01:43:00,
2013-07-26 21:49:00,67.8,64.2,30.04,South,188,0.0,0.0,88,0.00,,,0.00,meteobridge,2013-07-27 01:49:00,
2013-07-26 21:55:00,67.6,63.7,30.04,South,188,0.0,0.0,87,0.00,,,0.00,meteobridge,2013-07-27 01:55:00,
2013-07-26 22:00:00,67.6,64.0,30.03,South,188,0.0,0.0,88,0.00,,,0.00,meteobridge,2013-07-27 02:00:00,
2013-07-26 22:05:00,67.5,63.9,30.03,South,188,0.0,0.0,88,0.00,,,0.00,meteobridge,2013-07-27 02:05:00,
2013-07-26 22:10:00,67.3,63.9,30.04,South,188,0.0,0.0,89,0.00,,,0.00,meteobridge,2013-07-27 02:10:00,
2013-07-26 22:16:00,67.3,63.9,30.04,South,188,0.0,0.0,89,0.00,,,0.00,meteobridge,2013-07-27 02:16:00,
2013-07-26 22:21:00,66.9,63.9,30.04,South,188,0.0,0.0,90,0.00,,,0.00,meteobridge,2013-07-27 02:21:00,
2013-07-26 22:26:00,66.7,63.7,30.03,South,188,0.0,0.0,90,0.00,,,0.00,meteobridge,2013-07-27 02:26:00,
2013-07-26 22:31:00,66.6,63.5,30.04,South,188,0.0,0.0,90,0.00,,,0.00,meteobridge,2013-07-27 02:31:00,
2013-07-26 22:36:00,66.4,63.7,30.04,South,188,0.0,0.0,91,0.00,,,0.00,meteobridge,2013-07-27 02:36:00,
2013-07-26 22:42:00,66.0,63.3,30.04,South,188,0.0,0.0,91,0.00,,,0.00,meteobridge,2013-07-27 02:42:00,
2013-07-26 22:47:00,65.8,63.5,30.04,South,188,0.0,0.0,92,0.00,,,0.00,meteobridge,2013-07-27 02:47:00,
2013-07-26 22:52:00,65.7,63.3,30.04,South,188,0.0,0.0,92,0.00,,,0.00,meteobridge,2013-07-27 02:52:00,
2013-07-26 22:58:00,65.5,63.1,30.04,South,188,0.0,0.0,92,0.00,,,0.00,meteobridge,2013-07-27 02:58:00,
2013-07-26 23:03:00,65.3,63.0,30.04,South,188,0.0,0.0,92,0.00,,,0.00,meteobridge,2013-07-27 03:03:00,
2013-07-26 23:08:00,65.1,62.8,30.04,South,188,0.0,0.0,92,0.00,,,0.00,meteobridge,2013-07-27 03:08:00,
2013-07-26 23:14:00,64.9,62.6,30.04,South,188,0.0,0.0,92,0.00,,,0.00,meteobridge,2013-07-27 03:14:00,
2013-07-26 23:19:00,64.8,62.4,30.04,South,188,0.0,0.0,92,0.00,,,0.00,meteobridge,2013-07-27 03:19:00,
2013-07-26 23:24:00,64.8,62.6,30.04,South,188,0.0,0.0,93,0.00,,,0.00,meteobridge,2013-07-27 03:24:00,
2013-07-26 23:30:00,64.6,62.4,30.04,South,188,0.0,0.0,93,0.00,,,0.00,meteobridge,2013-07-27 03:30:00,
2013-07-26 23:35:00,64.2,62.2,30.04,South,188,0.0,0.0,93,0.00,,,0.00,meteobridge,2013-07-27 03:35:00,
2013-07-26 23:41:00,64.0,62.1,30.04,South,188,0.0,0.0,93,0.00,,,0.00,meteobridge,2013-07-27 03:41:00,
2013-07-26 23:46:00,64.0,62.1,30.05,South,188,0.0,0.0,93,0.00,,,0.00,meteobridge,2013-07-27 03:46:00,
2013-07-26 23:52:00,63.9,62.1,30.05,South,188,0.0,0.0,94,0.00,,,0.00,meteobridge,2013-07-27 03:52:00,
2013-07-26 23:57:00,63.7,61.9,30.05,South,188,0.0,0.0,94,0.00,,,0.00,meteobridge,2013-07-27 03:57:00,